Temperature
17 16 16 17 18 19 19 19 19 20 20 20 19 19 20 20 20 20 20 21 21 22 22 22 21 21 20 20 20 19 18 18 17 17 16 16 15 15 14 14 13 13 13 13
17 17 18 18 19 19 19 19 19 19 20 20 19 19 19 19 20 20 21 21 22 22 22 22 22 21 21 20 20 19 19 18 17 17 16 16 15 15 14 14 13 13 13 13
18 18 19 19 19 19 19 19 19 20 20 19 20 19 19 20 20 21 21 22 22 22 22 22 22 21 21 21 20 20 19 18 17 17 16 16 15 15 14 14 13 13 13 13
18 19 19 19 19 19 19 20 20 20 19 18 19 18 19 18 19 20 21 22 22 22 22 23 22 22 21 21 20 20 19 18 18 17 16 16 15 15 14 14 14 13 13 13
19 19 19 19 20 19 19 20 19 19 19 18 18 18 18 18 20 20 20 22 23 23 23 23 23 22 22 21 20 20 19 18 18 17 17 16 15 15 14 14 14 13 13 13
19 19 20 20 20 20 20 19 18 16 16 18 18 18 18 18 20 20 20 22 23 23 23 23 23 22 21 21 20 20 19 19 18 17 17 16 16 15 14 14 14 13 13 13
20 20 20 20 20 20 19 18 17 17 17 17 18 18 18 19 19 19 20 22 23 23 23 23 23 22 22 21 21 20 19 19 18 18 17 16 16 15 15 14 14 14 13 13
20 19 21 21 21 20 19 18 17 18 18 17 17 18 18 19 20 21 21 22 23 23 23 23 23 22 22 21 21 20 20 19 18 18 17 16 16 15 15 14 14 14 13 13
19 20 21 21 21 19 19 17 17 16 17 17 17 18 19 20 20 20 21 22 23 23 23 23 23 22 22 22 21 20 20 19 19 18 17 17 16 15 15 15 14 14 14 13
19 20 21 21 21 20 19 16 15 16 17 17 18 18 18 20 19 19 18 20 22 22 23 23 22 22 22 21 21 20 20 19 19 18 17 17 16 16 15 15 14 14 14 13
20 19 20 21 21 21 19 18 15 14 15 16 18 18 18 18 18 17 17 19 20 21 22 22 22 22 22 21 20 20 19 19 18 18 17 17 16 16 15 15 15 14 14 14
18 17 18 20 20 20 20 19 16 17 17 15 16 16 18 17 17 17 18 19 20 21 21 22 22 22 21 21 20 20 19 19 19 18 18 17 17 16 16 15 15 14 14 14
18 17 18 19 19 19 20 19 17 15 14 14 15 17 17 16 17 17 17 18 19 20 21 21 21 21 21 20 20 20 19 19 19 18 18 17 17 16 16 16 15 15 14 14
17 17 18 18 18 19 20 20 17 16 15 15 15 17 17 16 15 16 17 18 19 19 19 20 20 20 20 20 20 20 19 19 19 18 18 18 17 17 16 16 15 15 14 14
17 18 19 18 19 19 19 19 18 17 16 16 17 16 16 15 15 16 16 17 18 18 18 19 19 19 19 20 20 19 19 19 19 18 18 18 17 17 16 16 16 15 15 14
15 17 18 19 18 18 18 18 18 17 17 16 16 16 15 15 15 15 16 16 17 17 17 18 18 19 19 19 19 19 19 19 18 18 18 18 17 17 17 16 16 15 15 15
14 16 17 17 17 18 18 18 17 16 15 15 15 15 14 14 14 15 15 16 16 16 17 17 17 18 18 18 19 19 19 18 18 18 18 18 17 17 17 16 16 16 15 15
14 14 13 15 17 18 17 16 16 15 15 14 15 14 14 14 15 15 15 15 15 16 16 16 17 17 17 18 18 18 18 18 18 18 18 17 17 17 17 16 16 16 16 15
12 13 12 13 16 16 16 16 16 16 15 14 14 14 15 15 15 15 15 15 15 15 15 16 16 16 17 17 17 17 17 17 17 17 17 17 17 17 17 16 16 16 16 16
11 12 12 13 16 16 16 16 16 15 15 14 14 14 14 14 12 13 14 14 15 15 15 15 15 16 16 16 16 16 16 16 16 16 16 16 16 16 16 16 16 16 16 16
13 12 12 12 14 14 15 15 15 15 15 14 14 14 14 13 13 14 14 14 14 14 14 14 15 15 15 15 15 15 15 15 15 15 16 16 16 16 16 16 16 16 16 15
12 12 11 11 13 14 14 14 14 14 14 14 14 14 14 14 13 13 13 13 14 14 14 14 14 14 14 14 14 14 14 14 15 15 15 15 16 16 15 16 16 16 15 15
11 11 11 12 13 13 14 14 15 15 14 14 14 14 14 13 13 13 13 13 13 13 13 13 13 13 13 13 13 13 13 13 14 14 15 15 15 15 15 15 15 15 15 15
11 11 10 11 12 13 13 14 14 14 14 14 14 14 13 13 13 13 12 12 12 12 12 12 12 12 12 12 12 12 12 12 13 13 14 14 14 14 15 15 15 15 15 14
10 11 10 10 10 12 13 14 14 14 14 14 13 13 13 13 12 12 12 12 11 11 11 11 11 11 11 11 11 11 11 11 12 12 13 13 13 13 14 14 14 14 15 14
8 10 10 11 12 11 13 13 13 13 13 13 13 12 12 12 12 11 11 11 11 11 11 10 10 10 10 10 10 10 10 10 10 11 12 12 12 12 13 13 14 14 14 14
Wind_Speed
3 4 3 5 4 3 3 2 1 3 1 2 5 8 10 5 5 8 8 9 10 12 9 6 7 8 8 8 8 8 7 6 5 3 2 2 1 0 1 1 1 2 2 3
5 1 4 4 4 3 3 2 2 3 2 0 4 7 8 4 5 7 8 9 11 9 6 7 7 8 9 9 9 8 8 7 6 4 3 2 2 1 1 1 2 2 3 3
5 3 3 4 4 2 0 2 2 2 4 4 5 8 7 5 4 4 4 6 7 9 9 8 8 9 9 10 11 11 9 8 7 5 3 3 3 2 1 1 2 2 3 3
1 1 4 4 2 4 2 3 2 1 3 4 5 3 7 7 8 5 5 4 6 6 7 8 9 10 11 12 10 9 9 8 7 6 5 5 3 3 3 2 2 3 3 2
2 3 4 3 4 5 3 2 3 2 3 3 5 2 8 6 7 7 7 6 6 6 6 8 10 11 10 9 9 9 8 8 7 6 6 5 3 3 1 1 2 2 2 2
1 2 3 4 1 4 3 5 6 6 5 3 3 1 5 5 5 8 7 7 6 5 5 6 6 6 7 7 8 8 9 8 7 7 6 6 6 4 3 2 2 2 2 3
3 1 1 3 4 3 5 5 5 7 5 3 4 0 6 7 6 5 7 7 6 4 3 4 5 7 8 9 9 9 10 9 8 7 7 7 7 6 6 4 3 3 2 2
3 2 2 3 4 4 3 7 6 3 2 4 5 2 6 6 6 5 4 5 6 5 3 5 6 7 8 9 10 10 11 9 9 9 8 6 6 5 4 5 4 4 4 4
5 2 3 2 3 8 5 3 5 6 2 2 6 7 8 6 8 9 8 7 8 7 6 5 5 5 7 8 10 11 11 10 10 10 8 7 7 6 6 5 4 4 4 3
7 2 2 1 5 5 5 8 6 5 3 1 6 5 4 8 8 9 9 8 9 9 7 6 4 5 5 6 6 7 9 10 9 9 8 7 7 7 6 5 5 5 4 3
4 4 2 3 2 4 4 5 6 5 5 5 1 6 4 5 6 7 8 8 8 9 8 6 4 3 3 3 4 6 7 7 7 8 8 7 7 7 6 6 6 6 4 4
3 5 1 3 3 1 3 6 7 5 3 4 4 6 5 3 5 5 7 8 8 8 7 6 4 2 1 2 3 5 7 8 8 8 8 8 7 7 7 7 7 6 6 5
5 5 4 5 6 4 3 4 4 6 5 5 4 6 3 6 7 6 6 8 8 9 9 8 6 5 3 2 3 5 6 8 7 7 8 8 8 8 9 9 7 6 6 5
5 5 6 7 6 2 1 2 4 5 4 5 7 6 7 8 8 9 8 8 8 9 10 9 8 7 5 4 4 4 5 6 6 7 8 10 10 10 10 9 8 7 7 6
5 4 3 3 2 1 3 3 4 6 7 8 6 4 4 5 5 6 7 8 10 12 12 11 10 8 7 6 5 4 5 5 5 6 9 11 10 9 8 8 8 7 7 8
4 4 2 1 2 1 2 4 3 3 2 4 2 1 3 2 3 6 8 10 11 11 12 12 11 10 9 8 7 6 5 4 4 6 9 9 8 8 9 9 8 8 8 7
3 4 3 2 4 3 3 3 3 2 1 4 4 3 1 2 5 6 6 8 8 9 10 11 10 10 9 9 7 6 6 3 3 5 7 6 7 8 10 9 9 10 9 8
5 5 4 1 2 3 4 1 5 6 2 1 2 1 1 1 1 3 5 7 8 9 10 11 10 11 9 9 8 7 5 3 3 5 6 6 6 8 8 8 10 11 9 9
4 6 5 4 2 4 3 1 3 4 1 1 1 1 2 1 2 4 7 6 6 7 7 7 8 8 9 10 10 8 6 5 4 5 7 7 7 8 8 9 11 10 9 10
5 5 5 4 4 6 5 2 2 5 1 2 1 1 1 3 3 3 6 6 6 7 7 8 8 8 10 11 9 8 7 7 7 8 8 7 7 8 9 11 10 9 9 11
4 3 4 4 4 6 4 4 2 4 4 2 1 1 1 1 3 4 5 5 5 6 7 8 8 8 9 9 9 9 9 9 10 10 9 7 7 8 10 9 8 7 9 9
5 5 5 5 4 7 2 3 4 4 2 2 2 1 1 1 1 2 3 5 6 7 7 7 7 8 8 8 8 9 10 11 11 10 9 8 8 8 7 8 8 7 8 9
4 6 6 7 6 2 0 2 2 3 2 2 2 1 2 1 2 3 3 4 5 6 6 6 7 8 8 8 8 10 11 12 11 11 10 10 9 8 7 7 8 6 7 8
3 2 3 2 4 2 1 1 0 1 2 3 2 2 2 2 2 3 3 4 5 6 7 7 7 8 9 9 9 9 11 11 11 11 11 10 8 8 7 6 6 7 7 9
5 3 2 3 4 2 2 3 2 1 1 2 1 2 2 2 3 3 4 5 5 6 6 6 7 8 10 10 10 10 11 11 11 11 11 10 8 9 8 7 7 9 10 10
6 7 7 7 7 5 6 5 3 3 3 3 2 2 2 2 3 3 4 4 5 6 6 7 7 8 9 10 10 11 10 10 10 11 11 9 8 8 7 7 8 10 11 13
Wind_Direction
87 86 158 194 179 146 138 133 297 284 256 207 252 274 283 270 235 238 235 229 230 237 238 211 195 179 169 167 168 167 162 159 145 136 133 135 169 264 318 316 339 349 356 3
74 171 211 151 127 111 96 66 334 316 336 239 299 292 289 263 239 238 236 231 230 235 227 206 190 180 180 178 177 175 176 172 175 166 155 155 151 192 250 301 333 344 348 349
143 203 166 135 127 116 84 188 230 303 355 22 354 334 330 325 305 281 257 240 230 224 221 208 195 192 185 187 186 186 183 179 180 160 121 91 68 40 12 329 317 326 335 335
120 152 134 130 161 147 259 235 197 36 42 347 27 340 311 325 329 323 298 272 249 238 221 208 198 196 198 197 187 183 179 179 178 165 162 156 163 190 224 234 271 309 328 331
191 156 143 171 208 170 209 40 86 76 102 25 20 62 302 337 342 323 309 291 266 247 224 215 209 206 202 188 181 179 174 180 178 174 175 168 173 195 215 238 283 309 323 323
203 183 177 193 177 154 137 68 55 48 67 38 343 70 303 309 297 311 319 318 298 272 246 232 217 199 192 180 178 174 176 186 183 181 182 184 185 188 195 224 254 284 303 305
28 357 229 156 102 65 81 78 34 20 22 290 313 199 263 279 286 282 297 308 313 288 257 237 215 200 192 186 185 181 182 192 190 188 195 197 195 192 201 211 221 237 262 271
108 305 249 180 162 148 125 125 140 153 221 297 346 301 269 284 305 315 318 319 330 320 280 250 231 213 203 196 188 185 191 198 193 196 204 202 199 197 208 211 211 221 231 245
152 247 301 200 147 127 121 113 146 126 124 13 323 317 316 341 355 358 354 350 334 321 301 278 258 228 212 201 198 196 195 199 200 203 202 203 203 204 211 216 215 226 236 243
146 141 343 83 83 51 125 138 100 101 117 2 324 320 294 320 328 338 341 334 323 325 322 310 281 246 226 214 206 198 201 206 205 202 204 208 208 208 208 208 219 227 233 236
125 124 7 55 143 175 113 95 100 101 134 140 273 287 246 266 304 316 316 322 322 322 320 317 307 282 240 206 196 201 207 211 210 209 210 210 210 207 204 211 222 223 224 224
111 112 88 287 301 256 160 154 143 140 178 153 164 266 290 296 315 320 322 327 330 332 332 331 330 338 315 227 217 212 213 215 217 210 208 216 213 202 207 219 224 218 221 224
127 105 72 360 348 9 73 114 122 119 116 145 164 256 327 4 2 359 350 345 346 353 356 357 359 353 332 289 250 232 226 226 222 208 208 214 213 209 215 221 221 216 217 222
109 102 151 186 214 228 294 145 143 128 144 188 214 242 319 344 352 351 353 353 358 4 6 5 1 349 334 316 292 264 249 236 224 211 211 217 218 216 218 217 215 214 213 214
85 119 170 214 237 225 236 235 186 183 188 189 221 211 282 312 326 339 352 4 12 9 5 1 356 348 343 335 321 298 272 253 231 219 220 225 224 221 219 217 215 213 212 215
57 118 111 322 19 310 268 274 233 204 192 191 163 226 279 324 17 22 16 17 14 3 357 355 354 352 346 334 320 311 292 271 237 230 233 232 225 220 219 220 216 212 214 215
63 119 120 254 310 5 291 266 166 122 86 152 171 220 275 22 32 29 17 18 12 359 354 353 349 342 336 329 314 303 294 277 244 244 246 236 226 225 225 221 214 216 215 210
135 116 126 151 52 232 250 350 125 114 67 94 139 160 196 212 135 56 35 21 8 358 354 350 345 342 336 334 330 315 314 296 264 261 260 245 233 234 231 220 221 222 215 211
149 134 122 127 172 280 288 148 148 140 73 356 118 38 359 353 66 18 17 13 359 348 342 338 336 334 338 344 341 336 332 320 298 283 275 263 242 238 232 229 230 225 215 216
72 92 114 131 164 231 240 277 277 123 232 285 130 96 21 68 47 309 342 352 349 346 344 343 342 349 352 346 344 348 338 330 310 293 283 276 258 242 238 236 236 228 218 221
87 82 127 156 204 255 263 293 93 149 235 231 174 157 108 139 206 263 321 338 339 340 340 343 348 351 343 340 347 347 341 327 310 302 292 282 271 254 246 241 240 232 222 219
170 157 172 152 189 245 288 86 146 200 194 168 165 159 144 193 262 308 325 329 337 342 343 345 347 341 337 341 347 341 331 319 316 309 297 286 277 269 263 247 243 234 220 219
194 188 184 186 205 228 262 169 184 157 167 200 186 205 173 201 279 305 317 323 328 332 334 334 335 332 334 337 340 332 322 322 324 321 306 293 288 276 265 250 244 239 221 222
266 158 147 238 252 250 268 165 176 172 188 202 193 200 193 230 269 293 304 315 323 326 326 327 331 333 330 328 327 317 316 320 322 321 314 302 294 288 276 262 247 236 229 227
233 175 169 246 266 294 277 256 229 209 192 193 210 223 225 238 276 279 291 299 305 311 313 318 319 317 315 317 317 316 317 321 321 317 315 310 296 287 278 266 253 246 238 230
207 182 181 220 214 196 232 235 216 208 226 226 227 260 273 251 258 270 276 283 292 300 304 309 310 309 309 312 313 315 316 317 317 318 316 312 305 296 284 278 283 267 255 252
Height
1499 1504 1509 1507 1506 1507 1509 1513 1514 1510 1505 1506 1508 1506 1500 1497 1498 1498 1498 1499 1500 1501 1503 1506 1508 1510 1513 1515 1516 1518 1519 1520 1520 1520 1520 1520 1519 1519 1519 1518 1517 1516 1515 1513
1504 1507 1502 1503 1504 1506 1509 1514 1514 1510 1505 1506 1508 1506 1499 1496 1495 1495 1495 1496 1497 1498 1501 1503 1505 1508 1510 1512 1514 1516 1517 1518 1519 1519 1519 1519 1519 1518 1518 1517 1517 1516 1514 1513
1505 1503 1500 1503 1507 1509 1511 1514 1513 1513 1509 1507 1509 1510 1502 1496 1495 1494 1494 1494 1495 1497 1498 1500 1502 1504 1507 1509 1512 1514 1516 1517 1518 1519 1518 1518 1517 1517 1517 1517 1516 1515 1514 1513
1502 1500 1502 1505 1508 1509 1514 1507 1509 1511 1517 1523 1518 1529 1511 1504 1498 1494 1493 1493 1494 1495 1496 1498 1499 1501 1504 1507 1510 1512 1514 1516 1517 1517 1517 1517 1517 1516 1516 1516 1515 1515 1514 1513
1503 1501 1503 1507 1505 1506 1509 1506 1508 1512 1517 1525 1523 1529 1521 1507 1502 1497 1494 1493 1493 1494 1495 1496 1497 1499 1502 1505 1507 1510 1512 1514 1515 1516 1516 1516 1516 1515 1515 1515 1514 1514 1513 1512
1501 1499 1500 1501 1501 1503 1505 1510 1514 1520 1526 1536 1528 1531 1527 1514 1506 1501 1495 1494 1493 1493 1494 1495 1496 1498 1500 1503 1505 1508 1510 1512 1513 1514 1515 1515 1515 1514 1514 1514 1513 1513 1513 1512
1504 1501 1499 1499 1503 1505 1508 1521 1537 1539 1544 1541 1529 1529 1527 1508 1503 1501 1497 1495 1494 1493 1493 1494 1495 1496 1498 1500 1503 1505 1507 1509 1511 1512 1513 1513 1513 1513 1513 1513 1512 1512 1512 1511
1511 1513 1500 1498 1501 1507 1511 1518 1537 1545 1547 1543 1532 1531 1519 1504 1501 1498 1497 1495 1494 1494 1493 1493 1494 1495 1496 1498 1500 1503 1505 1507 1509 1510 1511 1512 1512 1512 1512 1512 1511 1511 1511 1510
1511 1511 1498 1496 1497 1502 1512 1519 1521 1536 1539 1545 1538 1528 1513 1502 1500 1498 1497 1496 1495 1495 1494 1493 1494 1494 1496 1497 1498 1500 1502 1504 1506 1508 1509 1509 1510 1510 1510 1510 1510 1510 1510 1509
1501 1508 1501 1498 1499 1502 1506 1516 1527 1536 1547 1550 1542 1535 1528 1511 1506 1503 1500 1498 1496 1495 1494 1493 1493 1493 1494 1495 1497 1499 1500 1502 1504 1505 1506 1507 1507 1508 1508 1509 1508 1508 1508 1508
1498 1508 1507 1502 1504 1507 1511 1517 1527 1537 1539 1551 1549 1540 1516 1512 1508 1506 1502 1500 1497 1495 1494 1492 1492 1492 1493 1494 1495 1496 1498 1500 1501 1503 1504 1504 1505 1506 1506 1506 1506 1506 1506 1507
1500 1510 1516 1509 1502 1501 1503 1510 1521 1532 1538 1543 1547 1540 1510 1509 1507 1505 1503 1500 1498 1496 1494 1492 1491 1491 1491 1492 1493 1494 1495 1497 1498 1500 1501 1502 1503 1503 1503 1504 1504 1504 1504 1505
1500 1510 1523 1521 1517 1508 1507 1510 1515 1524 1536 1545 1546 1534 1510 1509 1507 1505 1503 1501 1498 1496 1494 1492 1491 1490 1490 1491 1491 1492 1492 1493 1495 1496 1497 1498 1499 1500 1500 1501 1501 1502 1502 1502
1497 1509 1519 1525 1521 1511 1510 1510 1515 1521 1533 1538 1535 1525 1515 1512 1509 1506 1504 1502 1500 1497 1495 1493 1491 1491 1490 1490 1490 1490 1490 1490 1491 1492 1493 1493 1495 1496 1497 1498 1498 1499 1499 1499
1498 1509 1508 1510 1508 1508 1509 1509 1512 1516 1520 1526 1521 1522 1518 1514 1511 1509 1506 1503 1501 1498 1496 1494 1493 1491 1490 1489 1488 1488 1487 1487 1487 1488 1488 1489 1491 1492 1493 1494 1494 1495 1495 1496
1502 1508 1509 1510 1509 1509 1510 1509 1510 1512 1514 1516 1518 1519 1514 1512 1511 1508 1507 1505 1502 1501 1499 1497 1494 1492 1490 1488 1487 1486 1485 1484 1484 1484 1484 1485 1486 1487 1488 1489 1490 1491 1491 1492
1507 1509 1515 1519 1515 1510 1516 1509 1509 1512 1513 1514 1518 1517 1512 1512 1511 1510 1508 1506 1505 1503 1501 1498 1496 1493 1491 1489 1486 1484 1483 1482 1481 1480 1480 1481 1481 1482 1483 1484 1485 1486 1487 1487
1508 1513 1520 1522 1517 1522 1516 1506 1506 1510 1513 1512 1512 1512 1511 1511 1511 1510 1509 1508 1506 1504 1501 1499 1496 1493 1491 1488 1486 1483 1481 1479 1478 1477 1477 1477 1477 1477 1477 1478 1479 1480 1481 1482
1505 1511 1522 1527 1524 1521 1513 1507 1507 1510 1513 1511 1511 1510 1510 1509 1509 1510 1509 1508 1507 1505 1502 1500 1497 1494 1491 1488 1484 1482 1479 1477 1476 1474 1473 1473 1473 1472 1472 1472 1472 1473 1475 1475
1507 1510 1520 1526 1522 1523 1511 1504 1503 1507 1515 1510 1509 1509 1509 1508 1513 1512 1509 1507 1506 1504 1502 1499 1496 1493 1490 1486 1483 1480 1477 1475 1473 1472 1470 1469 1468 1467 1466 1466 1466 1467 1467 1468
1513 1515 1520 1524 1521 1516 1507 1503 1503 1515 1514 1509 1508 1508 1508 1509 1511 1510 1508 1506 1504 1502 1500 1497 1494 1491 1488 1485 1482 1479 1476 1473 1470 1468 1466 1464 1463 1462 1461 1460 1460 1460 1460 1461
1512 1516 1520 1524 1523 1518 1504 1502 1507 1508 1506 1506 1506 1507 1507 1508 1508 1507 1506 1504 1502 1500 1497 1495 1492 1489 1486 1483 1480 1476 1473 1470 1467 1464 1461 1459 1457 1456 1455 1454 1453 1453 1453 1453
1508 1508 1510 1511 1510 1504 1502 1502 1503 1504 1504 1505 1505 1505 1506 1505 1505 1504 1503 1501 1499 1497 1495 1492 1489 1486 1483 1481 1477 1473 1470 1466 1463 1459 1456 1454 1452 1450 1449 1448 1447 1446 1446 1446
1504 1502 1505 1506 1502 1501 1501 1501 1502 1502 1502 1503 1503 1503 1503 1503 1502 1501 1500 1498 1496 1494 1492 1489 1486 1483 1480 1477 1474 1470 1466 1462 1458 1454 1451 1448 1445 1443 1442 1441 1440 1439 1438 1438
1501 1501 1503 1503 1500 1499 1499 1499 1500 1500 1500 1501 1501 1501 1501 1500 1499 1498 1497 1495 1493 1491 1489 1486 1483 1480 1476 1473 1469 1466 1462 1458 1453 1449 1446 1442 1439 1437 1434 1433 1432 1432 1431 1431
1495 1496 1499 1498 1495 1496 1495 1496 1497 1497 1497 1498 1498 1498 1498 1497 1496 1495 1493 1492 1490 1488 1485 1482 1479 1476 1472 1469 1465 1461 1458 1454 1449 1444 1440 1437 1433 1430 1428 1425 1423 1423 1423 1423